ATLAS CENTAUR 2 1 00694U 63047A 26255.20304154 .00001722 00000+0 19567-3 0 9990 2 00694 30.3560 232.7124 0545144 284.9832 69.1068 14.12679555158018 THOR AGENA D R/B 1 00733U 64002A 26255.02122367 .00000087 00000+0 48065-4 0 9999 2 00733 99.1140 278.4322 0033816 76.5114 283.9834 14.34093497265006 SL-3 R/B 1 00877U 64053B 26255.09986919 .00000057 00000+0 35442-4 0 9994 2 00877 65.0765 144.6708 0077134 233.5510 125.8464 14.61462129294038 SL-8 R/B 1 02802U 67045B 26254.65315920 .00000152 00000+0 49909-4 0 9996 2 02802 74.0137 0.7557 0064968 322.5896 37.0746 14.45718274115892 SL-8 R/B 1 03230U 68040B 26254.85510291 .00001820 00000+0 13344-3 0 9994 2 03230 74.0287 292.9886 0022853 60.3731 299.9730 15.04190728117995 OAO 2 1 03597U 68110A 26255.18230681 .00000133 00000+0 41005-4 0 9999 2 03597 34.9939 303.9206 0006026 255.5772 104.4250 14.47379095046132 ISIS 1 1 03669U 69009A 26255.11252733 .00000173 00000+0 10711-3 0 9995 2 03669 88.4401 134.8569 1707935 72.7604 305.2623 11.30448269369596 SERT 2 1 04327U 70009A 26255.06124536 .00000005 00000+0 63563-4 0 9990 2 04327 99.2865 188.1176 0005710 54.7915 315.9597 13.58745548805207 SL-3 R/B 1 05118U 71028B 26255.08151632 .00073157 00000+0 40516-3 0 9990 2 05118 81.2300 178.8789 0008150 353.9546 6.1617 15.79269732017918 ASTEX 1 1 05560U 71089A 26254.90331985 .00000338 00000+0 85836-4 0 9995 2 05560 92.7094 211.8135 0015770 166.8251 193.3371 14.50908734889305 SL-8 R/B 1 05730U 71119B 26254.93505975 .00005393 00000+0 27842-3 0 9991 2 05730 73.8866 186.7664 0538265 115.0005 250.8041 14.40329108682282 OAO 3 (COPERNICUS) 1 06153U 72065A 26255.14320073 .00000189 00000+0 43088-4 0 9999 2 06153 35.0066 314.9179 0007131 248.8118 131.0262 14.60100661873463 ATLAS CENTAUR R/B 1 06155U 72065B 26255.15067500 .00000575 00000+0 80998-4 0 9995 2 06155 35.0017 292.6662 0033049 140.8938 219.4159 14.78040682868867 SL-8 R/B 1 08459U 75112B 26254.84721030 .00000094 00000+0 39582-4 0 9999 2 08459 74.0614 36.4387 0014645 79.7721 280.5084 14.38277560658632 SL-3 R/B 1 10114U 77057B 26255.12125147 .00008298 00000+0 15250-3 0 9998 2 10114 97.5874 76.0090 0005878 338.0117 22.0881 15.49490319697167 SEASAT 1 1 10967U 78064A 26255.18265932 .00000109 00000+0 68864-4 0 9999 2 10967 108.0079 156.8993 0002131 299.8142 60.2792 14.46286053533470 SL-14 R/B 1 11267U 79011B 26255.09006838 .00000293 00000+0 26256-4 0 9997 2 11267 82.5211 279.6857 0016733 149.8287 210.3900 14.92076587556573 SL-8 R/B 1 11574U 79089B 26255.03867294 .00000158 00000+0 55807-4 0 9992 2 11574 74.0672 106.0791 0016564 232.5953 127.3696 14.42435749462976 SL-14 R/B 1 11672U 80005B 26255.15889301 .00000328 00000+0 30572-4 0 9998 2 11672 82.5143 130.3497 0014139 260.8873 99.0746 14.91093664504277 SL-8 R/B 1 12139U 81003B 26255.03123588 .00010745 00000+0 25296-3 0 9991 2 12139 82.9354 116.9105 0239177 247.0472 110.5368 15.17132758342875 SL-3 R/B 1 12465U 81046B 26255.16681066 .00008682 00000+0 17722-3 0 9996 2 12465 81.2273 65.1390 0018015 87.7040 272.6267 15.45841259467203 SL-3 R/B 1 12904U 81103B 26255.13045706 .00002759 00000+0 11642-3 0 9994 2 12904 81.1617 354.4334 0012914 21.8513 338.3268 15.22881513001601 SL-3 R/B 1 13068U 82013B 26255.14152559 .00002693 00000+0 11189-3 0 9996 2 13068 81.1731 301.9592 0020455 269.4150 90.4739 15.23282033432722 SL-3 R/B 1 13154U 82039B 26255.13113343 .00001340 00000+0 78090-4 0 9990 2 13154 81.1494 0.6397 0032082 64.9282 295.5268 15.10893487409785 SL-3 R/B 1 13403U 82079B 26255.18735708 .00003215 00000+0 12149-3 0 9996 2 13403 81.1484 332.5260 0022645 252.1152 107.7612 15.26454669406133 SL-14 R/B 1 13553U 82092B 26255.20152001 .00000271 00000+0 27540-4 0 9990 2 13553 82.5703 326.8855 0021363 45.5964 343.6118 14.86800788356649 SL-3 R/B 1 13819U 83010B 26254.93745904 .00011283 00000+0 19083-3 0 9992 2 13819 81.1010 132.9638 0015551 109.3886 250.9044 15.51291966386779 SL-3 R/B 1 14208U 83075B 26255.13286713 .00007136 00000+0 16879-3 0 9999 2 14208 97.6115 267.2958 0017939 281.5359 78.3873 15.41982091358852 COSMOS 1536 1 14699U 84013A 26255.07517243 .00004169 00000+0 16105-3 0 9999 2 14699 82.5409 282.2548 0013242 354.3226 5.7860 15.25891486301028 SL-14 R/B 1 14820U 84027B 26255.00661909 .00000283 00000+0 29438-4 0 9999 2 14820 82.5385 70.2822 0019422 77.5925 282.7463 14.86108857275309 SL-8 R/B 1 15483U 85006B 26255.04942932 .00000049 00000+0 24742-4 0 9998 2 15483 74.0436 278.2148 0017605 150.3041 239.1170 14.37863152180813 SL-12 R/B(2) 1 15772U 85042D 26254.98172448 -.00000015 00000+0 14871-4 0 9994 2 15772 71.1076 54.1355 0035768 199.0166 297.9059 14.22020518140876 SL-14 R/B 1 15945U 85069B 26254.93416625 .00000315 00000+0 32754-4 0 9990 2 15945 82.5272 209.7743 0017326 297.8720 62.0741 14.86567802200502 SL-16 R/B 1 16182U 85097B 26255.06926669 -.00000085 00000+0 18469-4 0 9996 2 16182 71.0015 108.1660 0008887 319.3016 202.2382 14.16621688113625 SL-14 R/B 1 16496U 86006B 26254.99315007 .00000339 00000+0 33063-4 0 9992 2 16496 82.5233 84.4159 0076663 16.0500 344.3119 14.87010836176896 COSMOS 1743 1 16719U 86034A 26255.01901205 .00060123 00000+0 39112-3 0 9993 2 16719 82.5217 235.8086 0001954 78.8324 281.3160 15.75714280209422 SL-14 R/B 1 16792U 86046B 26255.03442580 .00000283 00000+0 29698-4 0 9995 2 16792 82.4783 264.1128 0022354 335.7411 24.2750 14.85722053154077 SL-14 R/B 1 16882U 86055B 26255.15259919 .00000255 00000+0 26406-4 0 9993 2 16882 82.5210 311.3775 0020366 76.5001 313.4094 14.85774840147057 AJISAI (EGS) 1 16908U 86061A 26255.20239975 -.00000112 00000+0 10079-3 0 9996 2 16908 50.0073 239.8267 0011307 41.8797 91.6356 12.44517379491227 SL-14 R/B 1 17567U 87024B 26255.06745764 .00000268 00000+0 27627-4 0 9999 2 17567 82.5250 277.5936 0018356 8.5057 351.6467 14.86264164115817 COSMOS 1833 1 17589U 87027A 26255.03733786 -.00000317 00000+0 14354-3 0 9992 2 17589 70.9174 294.3259 0027063 282.6232 77.1863 14.13050849036643 SL-16 R/B 1 17590U 87027B 26255.03436527 -.00000159 00000+0 55188-4 0 9992 2 17590 71.0004 243.8137 0006158 218.6509 141.4175 14.17183474041744 SL-14 R/B 1 17912U 87038B 26255.09110321 .00000244 00000+0 25399-4 0 9994 2 17912 82.5002 121.2218 0017696 268.5731 91.3457 14.85494844106903 COSMOS 1844 1 17973U 87041A 26255.22605230 -.00000285 00000+0 12270-3 0 9997 2 17973 70.9018 0.7111 0028327 103.1492 257.2793 14.14581601029968 SL-14 R/B 1 18153U 87055B 26255.16989729 .00000279 00000+0 29175-4 0 9999 2 18153 82.5022 173.2350 0022001 114.9559 245.3946 14.85757747097621 COSMOS 1867 1 18187U 87060A 26255.10983626 -.00000034 00000+0 24787-4 0 9990 2 18187 65.0103 144.6260 0018443 281.0197 78.8813 14.31523530046623 SL-14 R/B 1 18749U 88001B 26254.84103757 .00000282 00000+0 29698-4 0 9999 2 18749 82.5152 20.2287 0017605 347.5841 12.4939 14.85658135069667 COSMOS 1933 1 18958U 88020A 26255.19175284 .00002142 00000+0 10040-3 0 9992 2 18958 82.5098 66.2268 0002524 272.2146 87.8799 15.19187308078536 SL-3 R/B 1 19046U 88032B 26255.14125977 .00003134 00000+0 14175-3 0 9998 2 19046 97.5351 238.1739 0023650 305.8929 54.0111 15.21442761080448 SL-16 R/B 1 19120U 88039B 26254.71855528 .00000127 00000+0 82779-4 0 9997 2 19120 71.0157 35.1828 0020092 50.5661 309.7238 14.19636885984788 COSMOS 1953 1 19210U 88050A 26255.16967843 .00005807 00000+0 19227-3 0 9991 2 19210 82.5100 330.2529 0010749 176.2585 183.8738 15.31039723066295 SL-8 R/B 1 19257U 88053B 26255.13573992 .00000147 00000+0 55980-4 0 9999 2 19257 74.0468 128.7817 0021183 263.2309 259.0083 14.38993903003301 COSMOS 1975 1 19573U 88093A 26254.55944280 .00004568 00000+0 15465-3 0 9995 2 19573 82.5167 290.7647 0009788 226.0069 134.0366 15.30284520047811 SL-14 R/B 1 19574U 88093B 26255.01656258 .00000286 00000+0 29991-4 0 9996 2 19574 82.5293 227.1177 0021673 138.1659 288.0039 14.85788123028687 SL-16 R/B 1 19650U 88102B 26255.02654713 .00000243 00000+0 14693-3 0 9992 2 19650 70.9981 119.4206 0012118 86.4108 273.8401 14.16171403953279 INTERCOSMOS 24 1 20261U 89080A 26255.22038153 .00000655 00000+0 19195-3 0 9993 2 20261 82.6117 342.9929 1186574 219.8135 130.9816 12.59726636690287 SL-14 R/B 1 20262U 89080C 26254.73069757 .00000273 00000+0 72634-4 0 9997 2 20262 82.5908 53.6897 1230230 119.4658 253.4837 12.50602816683403 DELTA 1 R/B 1 20323U 89089B 26254.98514198 .00000176 00000+0 52397-4 0 9991 2 20323 97.0661 72.6709 0067549 253.3548 106.0227 14.50773235922742 ARIANE 40 R/B 1 20443U 90005H 26255.11243108 .00000124 00000+0 52861-4 0 9999 2 20443 98.2874 309.9892 0010171 11.0306 349.1104 14.39961962919634 DELTA 2 R/B(1) 1 20453U 90008B 26254.55111663 .00257105 25703-4 73297-3 0 9990 2 20453 35.5947 10.0168 0027819 220.5427 139.3247 15.91527146955351 COSMOS 2058 1 20465U 90010A 26254.95009784 .00002324 00000+0 13201-3 0 9998 2 20465 82.4654 223.7567 0011331 58.1604 302.0728 15.12413357970384 SL-14 R/B 1 20466U 90010B 26255.03327116 .00000252 00000+0 27503-4 0 9990 2 20466 82.4987 92.3789 0020895 48.6337 311.6670 14.83691008956117 SL-14 R/B 1 20511U 90018B 26254.89293486 .00000279 00000+0 31921-4 0 9992 2 20511 82.5200 49.0395 0015695 194.4472 165.6296 14.82261821950166 HST 1 20580U 90037B 26255.15387770 .00005271 00000+0 16027-3 0 9995 2 20580 28.4729 205.7820 0001774 38.6042 321.4681 15.31622004801913 SL-16 R/B 1 20625U 90046B 26255.03953287 -.00000156 00000+0 55729-4 0 9995 2 20625 70.9972 266.5369 0013640 10.9388 349.2029 14.15034840874751 COSMOS 2084 1 20663U 90055A 26254.96221955 .00001525 00000+0 11650-3 0 9992 2 20663 62.7885 59.8410 0016615 347.6923 12.3769 15.06415454964377 SL-6 R/B(2) 1 20666U 90055D 26255.20596049 .00000972 00000+0 82163-4 0 9995 2 20666 62.7831 339.1909 0054184 16.3498 343.9334 15.04272207966242 SL-8 R/B 1 20775U 90078B 26255.01068830 .00013253 00000+0 36086-3 0 9990 2 20775 82.8970 82.9994 0341866 103.8210 260.1297 14.94864561837082 SL-8 R/B 1 21088U 91006B 26255.17589946 .00000101 00000+0 85695-4 0 9992 2 21088 82.9435 31.2964 0021432 230.3811 302.0773 13.77522088789747 OKEAN-3 1 21397U 91039A 26255.14153406 .00002408 00000+0 16443-3 0 9992 2 21397 82.5189 156.0507 0015548 56.4070 303.8639 15.05662189893089 COSMOS 2151 1 21422U 91042A 26255.14934838 .00000888 00000+0 67987-4 0 9991 2 21422 82.4927 263.7464 0013259 142.6737 217.5411 15.00631855891156 SL-14 R/B 1 21423U 91042B 26255.12052931 .00000240 00000+0 27360-4 0 9998 2 21423 82.4921 45.3477 0016757 353.6242 6.4756 14.81944762880685 ERS-1 1 21574U 91050A 26255.04787522 .00000197 00000+0 77557-4 0 9990 2 21574 98.7782 277.8621 0032041 11.3406 348.8497 14.39563394842543 ARIANE 40 R/B 1 21610U 91050F 26255.14203953 .00000182 00000+0 66708-4 0 9993 2 21610 98.1798 300.1394 0002396 205.8505 154.2566 14.42999221845884 INTERCOSMOS 25 1 21819U 91086A 26254.85982559 .00001307 00000+0 24856-3 0 9993 2 21819 82.6063 197.3814 1485522 75.4374 300.6347 12.12327278519247 SL-8 R/B 1 21876U 92008B 26255.11320736 .00000118 00000+0 10608-3 0 9993 2 21876 82.9267 129.1688 0034256 336.1453 178.0759 13.75991805735055 SL-8 R/B 1 21938U 92020B 26254.84212323 .00000075 00000+0 61996-4 0 9996 2 21938 82.9338 15.4764 0030057 136.4169 336.0177 13.75559572726720 USA 81 1 21949U 92023A 26254.89600821 .00000111 00000+0 33808-4 0 9992 2 21949 85.0100 23.9433 0002338 110.5189 249.6254 14.32416906121446 COSMOS 2219 1 22219U 92076A 26255.19732551 -.00000196 00000+0 77843-4 0 9992 2 22219 71.0638 348.1758 0020711 275.2296 84.6463 14.14113680744749 SL-16 R/B 1 22220U 92076B 26255.16830397 .00000003 00000+0 25426-4 0 9994 2 22220 71.0002 155.5531 0012638 180.8200 339.4664 14.16879614748241 COSMOS 2221 1 22236U 92080A 26254.98758557 .00001000 00000+0 85129-4 0 9996 2 22236 82.5006 100.5912 0012777 288.4360 71.5473 14.96737170808650 SL-16 R/B 1 22285U 92093B 26255.16558758 .00000005 00000+0 26680-4 0 9997 2 22285 71.0242 332.7947 0004094 350.4000 9.7044 14.15474202739543 COSMOS 2228 1 22286U 92094A 26255.14156469 .00001310 00000+0 10883-3 0 9997 2 22286 82.5156 58.7189 0018600 37.7239 322.5284 14.97818841803966 SL-16 R/B 1 22566U 93016B 26255.08420720 -.00000257 00000+0 10733-3 0 9994 2 22566 71.0077 183.6937 0008998 27.5576 332.6022 14.15317335728545 COSMOS 2242 1 22626U 93024A 26255.00742536 .00001105 00000+0 93185-4 0 9999 2 22626 82.5152 88.4602 0017127 42.1808 318.0728 14.97121180808269 SL-16 R/B 1 22803U 93059B 26254.59762733 -.00000209 00000+0 79240-4 0 9999 2 22803 70.9928 339.0748 0019438 285.0635 74.8337 14.17256941705879 ARIANE 40 R/B 1 22830U 93061H 26255.14066362 .00000098 00000+0 51422-4 0 9996 2 22830 98.4740 320.1576 0011913 92.6768 267.5780 14.32936318720808 COSMOS 2278 1 23087U 94023A 26255.09429911 .00000359 00000+0 21219-3 0 9997 2 23087 71.0531 145.0946 0006977 107.9937 252.1947 14.14404016671169 SL-16 R/B 1 23088U 94023B 26255.12791066 -.00000211 00000+0 84533-4 0 9992 2 23088 71.0012 39.3426 0003755 334.2696 25.8240 14.15033996672461 SL-16 R/B 1 23343U 94074B 26255.11671829 .00000257 00000+0 40893-4 0 9995 2 23343 97.6962 278.2035 0006066 347.0585 57.9390 14.79563783714810 SL-16 R/B 1 23405U 94077B 26255.17822133 -.00000236 00000+0 95961-4 0 9993 2 23405 70.9840 320.1462 0004872 256.3190 103.7390 14.15580746642623 ARIANE 40+ R/B 1 23561U 95021B 26255.18965300 .00000149 00000+0 61309-4 0 9992 2 23561 98.4338 323.9764 0005684 308.9376 74.4796 14.39871470646082 SL-16 R/B 1 23705U 95058B 26255.12349832 -.00000136 00000+0 45198-4 0 9997 2 23705 71.0211 148.8345 0013358 204.6742 155.3743 14.15514258594236 SL-16 R/B 1 24298U 96051B 26255.06771787 .00000166 00000+0 11622-3 0 9996 2 24298 70.7685 140.8015 0019050 225.3195 134.6373 14.12478844547962 ORBVIEW 2 (SEASTAR) 1 24883U 97037A 26255.00340566 .00000126 00000+0 60083-4 0 9994 2 24883 98.8778 64.4772 0001526 206.1798 153.9309 14.35589610535208 SL-16 R/B 1 25400U 98043G 26254.87283904 .00000017 00000+0 26038-4 0 9995 2 25400 98.8458 209.8127 0009549 188.7839 171.3174 14.26080480465524 SL-16 R/B 1 25407U 98045B 26255.11357691 .00000160 00000+0 10460-3 0 9997 2 25407 71.0111 149.5229 0005329 105.4058 254.7654 14.16210149453492 ISS (ZARYA) 1 25544U 98067A 26255.14337336 .00004988 00000+0 98350-4 0 9997 2 25544 51.6305 229.7248 0004961 131.0693 229.0724 15.49086104585236 CZ-4B R/B 1 25732U 99025C 26255.11516110 .00000010 00000+0 25372-4 0 9993 2 25732 98.6415 294.7368 0037405 166.8466 215.3076 14.18294957414596 OKEAN-O 1 25860U 99039A 26255.12717492 .00000364 00000+0 54221-4 0 9994 2 25860 97.9230 312.8902 0001961 91.2818 268.8619 14.80550146461975 SL-16 R/B 1 25861U 99039B 26255.13600314 .00000304 00000+0 45171-4 0 9998 2 25861 97.9750 313.7127 0015097 17.5763 342.5969 14.81917288464478 DELTA 2 R/B 1 25876U 99041E 26255.08667514 .00000548 00000+0 12663-3 0 9995 2 25876 51.7616 276.5256 0500623 178.5941 181.6535 14.12244374389360 HELIOS 1B 1 25977U 99064A 26255.18778735 .00000897 00000+0 10363-3 0 9993 2 25977 98.1515 162.8116 0001823 121.4884 238.6510 14.88194658712995 TERRA 1 25994U 99068A 26255.19597661 .00000230 00000+0 55701-4 0 9991 2 25994 97.9374 301.2580 0001557 353.5066 78.9055 14.61158656422314 SL-16 R/B 1 26070U 00006B 26254.75325174 -.00000188 00000+0 71195-4 0 9998 2 26070 71.0011 66.6027 0018766 259.7257 100.1750 14.15843110374892 TITAN 4B R/B 1 26474U 00047B 26255.14102941 .00001815 00000+0 11579-3 0 9996 2 26474 67.9856 235.7349 0042144 198.2337 161.7305 15.10593693421065 ENVISAT 1 27386U 02009A 26254.87472603 .00000043 00000+0 27772-4 0 9998 2 27386 98.3914 204.2901 0001188 90.5615 288.8140 14.39081544285953 IDEFIX & ARIANE 42P R/B 1 27422U 02021B 26254.82579786 .00000131 00000+0 66300-4 0 9996 2 27422 98.5974 191.3807 0012022 5.5254 354.6059 14.31115210270648 AQUA 1 27424U 02022A 26255.23567314 .00000499 00000+0 10895-3 0 9993 2 27424 98.4385 226.3026 0001638 70.0506 346.6067 14.62198310295996 CZ-4B R/B 1 27432U 02024C 26255.09349270 .00000016 00000+0 30882-4 0 9991 2 27432 98.8616 307.3148 0049592 212.3231 177.5150 14.14574908255592 MIDORI II (ADEOS-II) 1 27597U 02056A 26255.14882735 .00000150 00000+0 76565-4 0 9999 2 27597 98.7977 215.1870 0001489 125.7101 234.4219 14.29387368236931 H-2A R/B 1 27601U 02056E 26254.89197625 .00000175 00000+0 75987-4 0 9997 2 27601 98.3404 208.4407 0069552 327.9055 94.8485 14.33860742240797 CZ-4B R/B 1 28059U 03049C 26255.00988655 .00000245 00000+0 67714-4 0 9990 2 28059 98.6955 257.3372 0048577 24.4205 335.9277 14.55149380213692 CZ-2C R/B 1 28222U 04012C 26255.00944763 .01374897 26304-5 60587-3 0 9994 2 28222 97.7019 342.6311 0011311 262.6304 97.3700 16.22269665233718 SL-16 R/B 1 28353U 04021B 26255.13671691 -.00000282 00000+0 12215-3 0 9998 2 28353 71.0002 201.2101 0002977 136.1006 224.0353 14.14619623149204 CZ-4B R/B 1 28415U 04035C 26255.04993072 .00005558 00000+0 18141-3 0 9996 2 28415 97.3316 287.1852 0030822 28.7663 331.5270 15.31722073208418 CZ-2C R/B 1 28480U 04046B 26255.13485998 .00000099 00000+0 52579-4 0 9992 2 28480 98.1839 158.4364 0138656 323.8876 35.3001 14.27050873135096 ARIANE 5 R/B 1 28499U 04049H 26255.02250487 .00000542 00000+0 65782-4 0 9999 2 28499 98.2788 70.6791 0084953 106.9462 254.1085 14.85554899173456 CZ-2D R/B 1 28738U 05024B 26255.01702433 .00083712 00000+0 42973-3 0 9997 2 28738 97.3411 279.4533 0004077 84.0438 276.1294 15.81002166169000 ALOS (DAICHI) 1 28931U 06002A 26255.14180919 .00000935 00000+0 16350-3 0 9998 2 28931 98.1413 210.4833 0002181 77.0945 283.0504 14.70210878100872 H-2A R/B 1 28932U 06002B 26255.02907361 .00004087 00000+0 19262-3 0 9991 2 28932 98.2660 58.8466 0048822 327.5131 32.3098 15.19126894122703 RESURS-DK 1 1 29228U 06021A 26255.01867404 .00001528 00000+0 91188-4 0 9998 2 29228 69.9301 114.7291 0005502 216.5050 143.5742 15.13503876115719 CZ-4B R/B 1 29507U 06046C 26255.06183457 .00002879 00000+0 14175-3 0 9999 2 29507 97.5375 299.3970 0031542 343.3776 16.6421 15.18380428088318 CZ-2C R/B 1 31114U 07010B 26254.99342522 .00000046 00000+0 39605-4 0 9999 2 31114 98.4144 359.1185 0060070 112.2929 248.4633 14.20293718006152 COSMO-SKYMED 1 1 31598U 07023A 26255.14662477 .00001924 00000+0 17051-3 0 9997 2 31598 97.8832 87.7566 0001547 93.8770 266.2628 14.97431913042803 COSMOS 2428 1 31792U 07029A 26255.00902580 .00000071 00000+0 63694-4 0 9993 2 31792 70.9441 172.2041 0010489 334.2659 25.7939 14.12975960990412 SL-16 R/B 1 31793U 07029B 26255.08894661 -.00000049 00000+0 50279-6 0 9995 2 31793 70.9761 140.5518 0002062 278.8618 239.1833 14.14864553991738 KORONAS-FOTON 1 33504U 09003A 26255.03458823 .00010089 00000+0 19583-3 0 9996 2 33504 82.4255 81.5302 0009299 193.5200 166.5801 15.47437187974522 CZ-2C R/B 1 37731U 11030B 26255.15578735 .00000695 00000+0 93067-4 0 9995 2 37731 97.8744 209.0193 0053586 102.9571 269.2182 14.81616514817708 H-2A R/B 1 38341U 12025E 26254.91427683 .00002135 00000+0 19252-3 0 9990 2 38341 98.4934 237.2749 0045159 63.9235 296.6622 14.96039350776052 SHIJIAN-16 (SJ-16) 1 39358U 13057A 26255.23557229 .00000636 00000+0 64291-4 0 9999 2 39358 74.9728 191.7922 0015447 14.8686 345.2953 14.92768162699339 SL-4 R/B 1 39679U 14021B 26255.05668882 .00012729 00000+0 24844-3 0 9990 2 39679 51.6045 144.6691 0087874 65.3477 295.6629 15.43755730685024 ALOS-2 1 39766U 14029A 26255.25028045 .00001193 00000+0 16657-3 0 9994 2 39766 97.9232 351.1675 0001519 92.8347 267.3038 14.79469386664453 YAOGAN-29 1 41038U 15069A 26255.20984947 -.00000056 00000+0 21194-6 0 9994 2 41038 97.9994 283.9648 0002938 92.6348 267.5202 14.83142060583525 ASTRO-H (HITOMI) 1 41337U 16012A 26254.98591829 .00002072 00000+0 11586-3 0 9992 2 41337 30.9981 233.4607 0009344 46.7519 313.3898 15.10852019580423 HXMT (HUIYAN) 1 42758U 17034A 26255.14119066 .00003520 00000+0 17389-3 0 9999 2 42758 43.0145 58.6158 0031975 334.7522 25.1763 15.19110868510885 SAOCOM 1A 1 43641U 18076A 26255.15710986 .00000328 00000+0 47828-4 0 9992 2 43641 97.8891 80.6553 0001417 85.2023 274.9352 14.82144813428981 H-2A R/B 1 43682U 18084L 26255.20561428 .00018126 00000+0 34196-3 0 9995 2 43682 98.8432 153.2819 0022886 92.3095 268.0772 15.48275798434573 SAOCOM 1B 1 46265U 20059A 26255.25585521 .00000198 00000+0 31460-4 0 9997 2 46265 97.8907 79.8536 0001357 87.5558 272.5811 14.82144326326380 CSS (TIANHE) 1 48274U 21035A 26255.15172565 .00017671 00000+0 21733-3 0 9998 2 48274 41.4683 154.0266 0002631 272.9241 87.1296 15.59839597306740 COSMOS 2550 1 48865U 21056A 26254.75014816 .00003951 00000+0 12583-3 0 9995 2 48865 67.1430 198.0512 0008356 268.2637 91.7560 15.33839953291993 CZ-2C R/B 1 52794U 22058K 26254.50454538 .00045634 00000+0 39236-3 0 9994 2 52794 50.1828 72.2800 0030045 271.5210 88.2325 15.68221138239168 CZ-2C R/B 1 54039U 22132E 26255.00869009 .00093423 00000+0 41735-3 0 9996 2 54039 97.2868 266.6569 0013333 107.6455 252.6271 15.83844539219630 GSLV R/B 1 54149U 22138AN 26254.99161169 .00001596 00000+0 13371-3 0 9998 2 54149 87.3741 103.8055 0020640 187.0134 173.0812 14.97573495211801 XRISM 1 57800U 23137A 26255.08743421 .00004015 00000+0 21580-3 0 9993 2 57800 31.0015 156.4148 0007291 122.0861 238.0486 15.13091505166037 ACS3 1 59588U 24077B 26255.14994454 .00022069 00000+0 15252-1 0 9999 2 59588 97.2156 154.9404 0081802 333.2396 26.4562 13.97419050120177 SPACEMOBILE-003 1 61045U 24163A 26255.03680916 .00000172 00000+0 22551-4 0 9993 2 61045 52.9679 270.1109 0005746 29.3808 330.7508 15.20473836110982 SPACEMOBILE-005 1 61046U 24163B 26254.42957167 .00001683 00000+0 90749-4 0 9993 2 61046 52.9763 272.8936 0008591 18.8952 341.2359 15.20508736110886 SPACEMOBILE-001 1 61047U 24163C 26254.75731355 -.00000799 00000+0 21315-4 0 9990 2 61047 52.9735 271.0728 0007261 29.9931 330.1477 15.20468465110937 SPACEMOBILE-002 1 61048U 24163D 26255.07110479 .00011507 00000+0 53072-3 0 9997 2 61048 52.9654 269.6998 0007226 61.5886 298.5835 15.20683588110987 SPACEMOBILE-004 1 61049U 24163E 26255.05305943 .00010956 00000+0 50808-3 0 9999 2 61049 52.9718 269.5436 0009118 52.3318 307.8502 15.20535206110983 CZ-8A R/B 1 66004U 25231K 26254.69619277 .00000039 00000+0 72484-4 0 9995 2 66004 50.0047 31.2498 0116775 168.8013 191.5542 14.30180475047321 SZ-21 MODULE 1 66515U 25246C 26255.04223198 .00064969 00000+0 26718-3 0 9991 2 66515 41.4697 123.1786 0012068 281.0811 78.8679 15.84902372047481 SPACEMOBILE-006 1 67232U 25309A 26254.84357921 .00001738 00000+0 97535-4 0 9998 2 67232 52.9946 294.6104 0011657 45.2831 314.9110 15.18875725039769 SPACEMOBILE-008 1 69589U 26139A 26254.94787590 .00001462 00000+0 98793-4 0 9998 2 69589 52.9944 228.6278 0002849 213.2062 146.8750 15.12965972013110 SPACEMOBILE-009 1 69590U 26139B 26254.35931935 .00001436 00000+0 97619-4 0 9996 2 69590 52.9934 231.3541 0003193 206.7153 153.3674 15.12858068013021 SPACEMOBILE-010 1 69591U 26139C 26254.63264591 .00001165 00000+0 82688-4 0 9994 2 69591 52.9939 230.2149 0003533 196.5204 163.5672 15.12716125013073